www.pogodaiklimat.ru

Погода и климат >> Архив погоды >> Австрия >> Винер-Нойштадт


ПОГОДА в Винер-Нойштадт

  • Прогноз погоды в Винер-Нойштадт
  • Монитор погоды в Винер-Нойштадт

АРХИВ ПОГОДЫ в Винер-Нойштадт

Время (UTC), дата Ветер
(напр.,м/с)
 
Видим.   Явления Облачность Т
(С)
Тd
(С)
f
(%)
Тe
(С)
Тes
(С)
Комфортность P
(гПа)
Po
(гПа)
Тmin
(С)
Tmax
(С)
R
(мм)
R24
(мм)
S
(см)
07 15.09 С 1 н/о н/о +14.8 +11.0 78 +15 +15 1027.3 994.0
08 15.09 СВ 2 н/о н/о +16.6 +10.9 69 +17 +17 1026.8 993.7
09 15.09 45 км 1/0
[Ci fib]
+17.6 +11.0 65 1026.5 993.0
10 15.09 СВ 2 н/о н/о +19.5 +11.3 59 +21 +21 комфорт 1025.1 992.4
11 15.09 СВ 2 н/о н/о +20.9 +11.6 55 +24 +24 комфорт 1024.1 991.6
12 15.09 СВ 3 45 км 3/1 1200 м
[Cu hum Ci fib]
+22.5 +12.5 53 +25 +32 комфорт 1024.0 991.1
13 15.09 СВ 3 н/о н/о +23.2 +12.9 52 +26 +26 жарко 1022.6 990.4
14 15.09 В 3 н/о н/о +24.3 +13.6 51 +27 +27 жарко 1021.7 989.6
15 15.09 В 2 35 км 4/1 1200 м
[Cu hum Ci fib]
+24.3 +13.5 51 +27 +29 жарко 1021.6 989.0
16 15.09 В 2 н/о н/о +24.4 +14.2 53 +27 +27 жарко 1020.2 988.2
17 15.09 В 1 н/о н/о +23.7 +14.4 56 +26 +26 жарко 1019.7 987.7
18 15.09 С 1 30 км 4/1 1200 м
[Cu hum Ci fib]
+18.6 +14.9 79 +20 +20 1020.8 987.6 +25.2
19 15.09 СЗ 2 н/о н/о +15.3 +12.8 85 +15 +15 1020.6 987.6
20 15.09 СЗ 1 н/о н/о +16.0 +13.7 86 +17 +17 1020.7 987.8
21 15.09 ЮЗ 2 н/о н/о +14.2 +12.3 88 +14 +14 1020.8 987.7
22 15.09 ЮЗ 2 н/о н/о +14.3 +13.0 92 +14 +14 1020.8 987.7
23 15.09 штиль 0 н/о н/о +13.4 +12.2 92 +13 +13 1020.8 987.6
00 16.09 ЮЗ 2 н/о н/о +14.1 +12.5 90 +14 +14 1020.5 987.4
01 16.09 ЮЗ 3 н/о н/о +14.3 +12.4 88 +13 +13 1020.1 987.0
02 16.09 ЮЗ 3 н/о н/о +13.7 +11.7 88 +13 +13 1020.0 986.8
03 16.09 ЮЗ 1 н/о н/о +13.3 +11.3 88 +13 +13 1019.7 986.5
04 16.09 ЮЗ 3 н/о н/о +13.5 +11.3 87 +12 +12 1019.5 986.3
05 16.09 35 км 4/1 1200 м
[Cu hum Ci fib]
+13.3 +13.3 100 1019.8 986.0
06 16.09 С 1 40 км 3/1 1200 м
[Cu hum Ci fib]
+15.0 +12.1 83 +16 +16 1019.5 985.9 +13.0
07 16.09 Ю 1 н/о н/о +18.5 +13.5 73 +20 +20 1018.5 985.9
08 16.09 В 2 н/о н/о +21.9 +14.6 63 +25 +25 комфорт 1018.4 986.2
09 16.09 В 4 45 км 4/3 1500 м
[Cu hum Ci fib]
+23.5 +16.1 63 +27 +30 душно 1018.5 986.0
10 16.09 ЮВ 3 н/о н/о +24.7 +16.4 60 +28 +28 душно 1017.4 985.6
11 16.09 В 5 н/о н/о +26.3 +16.6 55 +30 +30 душно 1016.5 984.9
12 16.09 В 5 45 км 8/8 1500 м
[]
+26.2 +15.3 51 +29 +30 жарко 1016.6 984.4
13 16.09 В 4 н/о н/о +26.0 +15.1 51 +29 +29 душно 1015.4 983.7
14 16.09 В 4 н/о н/о +25.7 +15.8 54 +29 +29 душно 1015.2 983.5
15 16.09 ЮВ 6 40 км 5/4 1500 м
[Cu hum Ac lent Ci fib]
+26.1 +15.8 53 +29 +30 жарко 1015.4 983.2
16 16.09 ЮВ 1 н/о н/о +25.3 +14.9 53 +28 +28 жарко 1014.9 983.2
17 16.09 штиль 0 н/о н/о +24.3 +15.6 58 +27 +27 жарко 1014.7 982.9
18 16.09 СЗ 3 25 км 8/1 1500 м
[Cu hum Ac und]
+20.8 +16.8 78 +25 +25 комфорт 1015.7 983.0 +27.2
19 16.09 З 2 н/о н/о +20.9 +16.0 74 +25 +25 комфорт 1015.2 983.0
20 16.09 ЮЗ 1 н/о н/о +20.6 +16.3 76 +25 +25 комфорт 1015.3 983.1
21 16.09 ЮЗ 1 н/о н/о +19.3 +16.5 84 +22 +22 комфорт 1015.6 983.2
22 16.09 С 1 н/о н/о +19.3 +16.6 84 +22 +22 комфорт 1015.6 983.2
23 16.09 З 1 н/о н/о +18.6 +16.8 89 +21 +21 комфорт 1015.6 983.2 0.0
00 17.09 штиль 0 н/о в посл. час осадки н/о +19.0 +15.7 81 +20 +20 1014.9 982.5 0.0
01 17.09 Ю 1 н/о н/о +18.6 +16.4 87 +21 +21 комфорт 1014.4 982.0 0.0
02 17.09 СЗ 1 н/о н/о +17.7 +16.1 90 +19 +19 1014.7 982.2
03 17.09 штиль 0 н/о н/о +18.2 +15.6 85 +18 +18 1014.5 982.0 0.0
04 17.09 З 1 н/о н/о +17.0 +15.5 91 +18 +18 1014.6 982.0
05 17.09 35 км 9/4 750 м
[Cu Sc Ac lent Ci fib]
+17.2 +15.7 91 1015.2 982.1
06 17.09 З 5 н/о н/о +19.8 +12.6 63 +21 +21 комфорт 1014.5 982.2 +16.7 +21.0 0.0
07 17.09 З 5 н/о н/о +20.5 +11.9 58 +22 +22 комфорт 1014.8 982.5
08 17.09 З 4 н/о н/о +21.1 +11.6 55 +23 +23 комфорт 1015.1 982.9
09 17.09 С 1 50 км 8/3 900 м
[Cu Sc Ac lent Ci fib]
+21.6 +12.2 55 +24 +28 комфорт 1015.4 982.7
10 17.09 З 6 н/о н/о +22.1 +12.6 55 +25 +25 комфорт 1014.6 982.5
11 17.09 СЗ 6 н/о н/о +22.7 +12.2 51 +25 +25 комфорт 1014.3 982.3
12 17.09 СВ 5 50 км 8/5 1050 м
[Cu Sc Ac lent Ci fib]
+19.9 +12.4 62 +21 +23 комфорт 1015.0 982.1
13 17.09 СВ 4 н/о н/о +19.7 +12.4 63 +21 +21 комфорт 1013.9 981.6
14 17.09 СВ 6 н/о н/о +19.9 +12.8 64 +21 +21 комфорт 1013.5 981.2
15 17.09 СВ 3 45 км 8/6 1050 м
[Cu Sc Ac lent Ci fib]
+19.0 +12.5 66 +20 +21 1014.1 981.2
16 17.09 СВ 2 н/о н/о +19.6 +13.1 66 +22 +22 комфорт 1013.0 980.7
17 17.09 З 7 н/о н/о +20.2 +11.9 59 +22 +22 комфорт 1013.0 980.8
18 17.09 СЗ 7 30 км 5/3 1050 м
[Cu Sc Ac lent Ci fib]
+19.5 +11.5 60 +20 +20 1014.1 981.2 +22.7
19 17.09 З 7 н/о н/о +19.8 +10.5 55 +21 +21 комфорт 1014.1 981.8
20 17.09 З 5 н/о н/о +18.5 +8.6 52 +19 +19 1014.9 982.4
21 17.09 СЗ 5 н/о н/о +17.7 +8.3 54 +17 +17 1015.6 983.0
22 17.09 СЗ 7 н/о н/о +17.3 +6.8 50 +16 +16 1016.2 983.5
23 17.09 СЗ 4 н/о н/о +16.1 +6.6 53 +15 +15 1016.9 984.0
00 18.09 СЗ 7 н/о н/о +16.4 +7.5 56 +15 +15 1016.9 984.1
01 18.09 СЗ 9
{13}
н/о н/о +16.1 +7.2 56 +14 +14 1017.2 984.3
02 18.09 С 8
{13}
н/о н/о +14.9 +6.8 58 +13 +13 1018.1 985.1
03 18.09 С 8
{13}
н/о н/о +14.0 +5.1 55 +12 +12 1019.1 985.9
04 18.09 С 5 н/о н/о +12.6 +4.2 57 +11 +11 1020.5 987.1
05 18.09 С 4 30 км 6/3 900 м
[Cu Sc Ac lent Ci fib]
+11.5 +4.0 60 +10 +10 1022.0 987.9
06 18.09 С 4 40 км 4/1 900 м
[Cu Sc Ac lent Ci fib]
+11.9 +4.2 59 +10 +10 1022.7 988.6 +11.5
07 18.09 С 6 н/о н/о +13.4 +3.6 51 +11 +11 1022.5 989.1
08 18.09 СЗ 7 н/о н/о +14.2 +2.0 44 +12 +12 1022.9 989.6
09 18.09 С 7 50 км 1/1 1500 м
[Cu hum Ci fib]
+14.9 +2.5 43 +13 +15 1023.4 989.6
10 18.09 С 7 н/о н/о +16.2 +0.6 35 +15 +15 1022.4 989.3
11 18.09 С 7 н/о н/о +16.8 +0.3 33 +16 +16 1022.0 989.0
12 18.09 С 8
{14}
50 км 1/1 1500 м
[Cu hum Ci fib]
+17.6 +0.3 31 +17 +18 1022.3 988.8
13 18.09 СЗ 7 н/о н/о +18.3 -1.5 26 +18 +18 1021.0 988.2
14 18.09 СЗ 7 н/о н/о +18.6 +0.3 29 +18 +18 1020.8 988.0
15 18.09 С 10
{14}
50 км 1/1 1500 м
[Cu hum Ci fib]
+18.0 -0.3 29 +17 +17 1020.8 987.4
16 18.09 С 5 н/о н/о +17.3 +1.7 35 +17 +17 1020.7 987.8
17 18.09 С 3 н/о н/о +15.3 +1.4 39 +15 +15 1021.8 988.7
18 18.09 СЗ 3
{14}
35 км 3/1 1500 м
[Sc diur, vesp Ac lent Ci fib]
+11.9 -1.6 39 +11 +11 1023.8 989.6 +18.8
19 18.09 З 1 н/о н/о +8.7 +1.9 62 +8 +8 1024.3 990.3
20 18.09 СЗ 3 н/о н/о +7.6 +2.4 70 +5 +5 1024.8 990.7
21 18.09 ЮЗ 1 н/о н/о +8.2 +2.4 67 +8 +8 1024.9 990.8
22 18.09 ЮЗ 1 н/о н/о +7.7 +3.3 74 +7 +7 1025.0 990.9
23 18.09 ЮЗ 2 н/о н/о +5.2 +2.4 82 +3 +3 1025.3 990.9
00 19.09 З 2 н/о н/о +4.4 +1.6 82 +2 +2 1025.7 991.1
01 19.09 З 1 н/о н/о +4.9 +2.2 83 +4 +4 1025.4 990.9
02 19.09 З 2 н/о н/о +3.7 +1.3 84 +1 +1 1025.5 990.9
03 19.09 З 2 н/о н/о +2.9 +0.9 87 -0 -0 1025.7 991.0
04 19.09 З 1 н/о н/о +3.5 +1.2 85 +2 +2 1025.9 991.2
05 19.09 40 км 5/4 1500 м
[Sc Ci fib]
+4.4 +1.6 82 1026.8 991.6
06 19.09 С 1 45 км 6/3 1500 м
[Cu Sc Ci sp]
+5.7 +2.5 80 +5 +5 1027.1 992.1 +2.8
07 19.09 Ю 1 н/о н/о +9.6 +3.9 68 +9 +9 1026.5 992.6
08 19.09 СВ 1 н/о н/о +12.1 +3.5 56 +12 +12 1026.7 993.0
09 19.09 С 5 45 км 6/4 1500 м
[Cu Sc Ac lent Ci fib]
+14.3 +4.3 51 +13 +15 1027.0 993.0
10 19.09 С 5 н/о н/о +14.9 +4.6 50 +14 +14 1026.0 992.7
11 19.09 С 6 н/о н/о +15.3 +3.6 45 +14 +14 1025.7 992.4
12 19.09 С 8 45 км 5/5 1500 м
[Cu hum]
+16.1 +2.5 40 +15 +15 1025.8 992.1
13 19.09 С 6 н/о н/о +16.1 +2.9 41 +15 +15 1025.4 992.2
14 19.09 СЗ 5 н/о н/о +16.5 +2.4 39 +16 +16 1025.3 992.2
15 19.09 С 7 40 км 5/4 1500 м
[Cu hum Ci fib]
+15.5 +1.6 39 +14 +14 1026.0 992.2
16 19.09 СЗ 4 н/о н/о +15.1 +1.5 40 +14 +14 1025.4 992.1
17 19.09 С 4 н/о н/о +13.0 +1.7 46 +12 +12 1026.0 992.5
18 19.09 С 4 30 км 6/3 1500 м
[Cu hum Ci sp]
+20.7 +2.1 29 +21 +21 комфорт 1027.8 993.4 +16.7
19 19.09 С 3 н/о н/о +10.2 +2.0 57 +8 +8 1028.0 994.1
20 19.09 СЗ 4 н/о н/о +7.1 +2.0 70 +4 +4 1029.1 994.8
21 19.09 СЗ 2 н/о н/о +7.4 +1.8 68 +6 +6 1029.2 994.9
22 19.09 СЗ 4 н/о н/о +7.5 +2.3 70 +4 +4 1029.5 995.2
23 19.09 штиль 0 н/о н/о +6.4 +1.7 72 +6 +6 1029.6 995.2
00 20.09 Ю 1 н/о н/о +6.3 +2.3 76 +5 +5 1029.7 995.2
01 20.09 Ю 2 н/о н/о +5.8 +2.2 78 +3 +3 1029.3 994.8
02 20.09 Ю 1 н/о н/о +5.7 +2.1 78 +5 +5 1029.1 994.6
03 20.09 З 2 н/о н/о +3.8 +1.2 83 +1 +1 1029.5 994.7
04 20.09 ЮЗ 1 н/о н/о +3.3 +1.2 86 +2 +2 1029.6 994.8
05 20.09 45 км 3/0
[Ci fib]
+3.1 +1.0 86 1030.2 994.7
06 20.09 С 2 50 км 4/0
[Ci fib]
+4.8 +2.2 83 +2 +3 1030.0 994.8 +2.1
07 20.09 ЮЗ 1 н/о н/о +8.2 +3.0 70 +8 +8 1029.6 995.4
08 20.09 Ю 1 н/о н/о +11.8 +3.4 56 +12 +12 1029.3 995.5
09 20.09 С 3 50 км 4/1 1200 м
[Cu hum Ci fib]
+13.6 +3.4 50 +13 +18 1029.7 995.5
10 20.09 В 2 н/о н/о +14.6 +3.5 47 +14 +14 1028.5 995.1
11 20.09 СВ 2 н/о н/о +14.7 +2.2 43 +15 +15 1027.9 994.5
12 20.09 В 2 50 км 4/3 1500 м
[Cu hum Ci fib]
+15.7 +2.5 41 +16 +22 1028.0 994.1
14 20.09 В 2 н/о н/о +16.2 +2.0 38 +16 +16 1026.6 993.4
15 20.09 СВ 3 45 км 8/1 1500 м
[Cu hum Ci sp]
+16.2 +2.3 39 +16 +17 1027.1 993.3
16 20.09 В 2 н/о н/о +15.7 +2.2 40 +16 +16 1026.6 993.3
17 20.09 СВ 2 н/о н/о +14.5 +2.1 43 +14 +14 1026.7 993.3
18 20.09 ЮЗ 3 30 км 8/1 1500 м
[Cu hum Ci sp]
+9.4 +3.6 67 +7 +7 1028.3 993.7 +16.7
19 20.09 З 2 н/о н/о +7.9 +3.8 75 +6 +6 1028.3 994.1
20 20.09 ЮЗ 2 н/о н/о +8.2 +4.2 76 +6 +6 1028.4 994.2
21 20.09 ЮЗ 2 н/о н/о +6.1 +3.1 81 +4 +4 1028.7 994.3
22 20.09 З 2 н/о н/о +6.3 +3.6 83 +4 +4 1028.7 994.3
23 20.09 З 3 н/о н/о +4.8 +2.5 85 +1 +1 1028.6 994.0
00 21.09 З 2 н/о н/о +4.6 +2.7 87 +2 +2 1028.4 993.8
01 21.09 ЮЗ 3 н/о н/о +5.2 +2.9 85 +2 +2 1028.1 993.6
02 21.09 З 3 н/о н/о +4.4 +2.3 86 +1 +1 1027.9 993.3
03 21.09 З 2 н/о н/о +4.6 +2.4 86 +2 +2 1027.7 993.1
04 21.09 ЮЗ 1 н/о н/о +4.7 +2.5 86 +3 +3 1027.3 992.7
05 21.09 В 1 50 км 1/0
[Ci fib]
+3.9 +1.9 87 +2 +2 1028.0 992.7
06 21.09 С 1 50 км 1/0
[Ci fib]
+5.3 +3.0 85 +4 +5 1027.8 992.7 +3.3
07 21.09 В 2 н/о н/о +9.5 +5.6 77 +8 +8 1026.6 992.7
08 21.09 В 2 н/о н/о +11.2 +6.0 70 +10 +10 1026.4 992.7
09 21.09 В 3 50 км ясно +14.7 +7.5 62 +14 +20 1026.1 992.2
10 21.09 Ю 2 н/о н/о +18.5 +3.7 37 +19 +19 1024.3 991.4
11 21.09 ЮВ 3 н/о н/о +19.1 +3.6 36 +20 +20 1023.7 990.9
12 21.09 Ю 4 50 км ясно +19.9 +4.4 36 +20 +26 1023.5 990.3
13 21.09 ЮВ 3 н/о н/о +20.2 +5.0 37 +21 +21 комфорт 1022.5 989.9
14 21.09 ЮВ 2 н/о н/о +20.6 +5.7 38 +22 +22 комфорт 1021.6 989.1
15 21.09 Ю 5 50 км ясно +20.0 +5.7 39 +21 +22 комфорт 1021.8 988.7
16 21.09 Ю 3 н/о н/о +19.0 +5.3 41 +20 +20 1021.3 988.6
17 21.09 ЮВ 2 н/о н/о +17.3 +5.6 46 +18 +18 1021.1 988.2
18 21.09 В 3 50 км ясно +15.1 +5.6 53 +15 +15 1022.2 988.5 +20.9
19 21.09 В 2 н/о н/о +13.9 +5.5 57 +14 +14 1021.7 988.4
20 21.09 ЮВ 1 н/о н/о +13.7 +4.6 54 +14 +14 1021.3 988.0
21 21.09 Ю 3 н/о н/о +14.5 +4.3 50 +14 +14 1020.8 987.6
22 21.09 Ю 1 н/о н/о +13.8 +4.5 53 +14 +14 1020.6 987.3
23 21.09 Ю 2 н/о н/о +13.9 +4.3 52 +14 +14 1019.9 986.7
00 22.09 Ю 2 н/о н/о +13.6 +4.2 53 +13 +13 1019.2 986.0
01 22.09 ЮВ 2 н/о н/о +13.3 +4.4 55 +13 +13 1019.0 985.7
02 22.09 Ю 2 н/о н/о +13.4 +4.4 54 +13 +13 1018.7 985.5
03 22.09 В 4 н/о н/о +12.3 +3.9 56 +11 +11 1018.0 984.7
04 22.09 В 3 н/о н/о +9.2 +4.2 71 +7 +7 1018.2 984.5
05 22.09 В 4 45 км 1/1
[Sc diur, vesp Ci fib]
+8.8 +4.2 73 +6 +6 1018.5 984.2
06 22.09 ЮВ 1 45 км 1/0
[Ac lent Ci fib]
+12.4 +4.4 58 +13 +13 1017.9 984.0 +8.4
07 22.09 ЮВ 3 н/о н/о +14.8 +4.8 51 +14 +14 1016.8 983.8

 

Местоположение метеостанции Винер-Нойштадт (Австрия): широта 47.83 долгота 16.22 высота над уровнем моря 285 м.

В архиве по умолчанию представлена погода в Винер-Нойштадт за последнюю неделю. Архивные данные за месяц целиком и за предыдущие месяцы, начиная с января 2011 года, Вы можете получить, выбрав интересующий диапазон дат из раскрывающегося списка и нажав кнопку "Ввод!".


*Определитесь, кто Вы:
робот инопланетянин человек

Внимание! Время в таблицах - всемирное. Для получения местного времени необходимо прибавить поправку, которая равна 1 ч.

Смотрите также архив погоды в соседних городах и на ближайших метеорологических станциях:

Погода в Хоэ-Ванде (Австрия) (14 км)
Погода в Гумпольдскирхене (Австрия) (23 км)
Погода в Айзенштадте (Австрия) (23 км)
Погода в Пухберг-ам-Шнеберге (Австрия) (25 км)
Погода в Марияхильфберге (Австрия) (26 км)
Погода в Зайберсдорфе (Австрия) (27 км)
Погода в Райхенау-ан-дер-Раксе (Австрия) (33 км)
Погода в Шопроне (Венгрия) (33 км)
Погода в Крумбахе (Австрия) (33 км)
Погода в Раксе (Австрия) (35 км)

Пояснения к столбцам:

Ветер - указаны скорость ветра в м/с - средняя за 10 мин, порывы в срок и между сроками (в фигурных скобках) и направление, откуда дует ветер: С - северный, СВ - северо-восточный, В - восточный, ЮВ - юго-восточный, Ю - южный, ЮЗ - юго-западный, З - западный, СЗ - северо-западный.
Видимость - горизонтальная дальность видимости в метрах или километрах. При видимости от 1 до 10 км при отсутствии осадков обычно наблюдается дымка, при ухудшении видимости до 1 км и менее - туман. В сухую погоду видимость может ухудшаться дымом, пылью или мглою.
Явления - указаны атмосферные явления, наблюдавшиеся в срок или в последний час перед сроком; фигурными скобками обозначены явления, наблюдавшиеся между сроками (за 1-3 часа до срока); квадратными скобками обозначены град или гололедные отложения с указанием их диаметра в мм.
Облачность - указаны через наклонную черту общая и нижняя облачность в баллах и высота нижней границы облаков в метрах; квадратными скобками обозначены формы облаков: Ci - перистые, Cs - перисто-слоистые, Cc - перисто-кучевые, Ac - высококучевые, As - высокослоистые, Sc - слоисто-кучевые, Ns - слоисто-дождевые, Cu - кучевые, Cb - кучево-дождевые. Подробнее классификацию облаков см. в Атласе облаков (PDF).
T - Температура воздуха - температура, измеренная на высоте 2 м над землей.
Td - Температура точки росы - температура, при понижении до которой содержащийся в воздухе водяной пар достигнет насыщения.
f - Относительная влажность воздуха - влажноcть воздуха, измеренная на высоте 2 м над землей.
Te - Эффективная температура - температура, которую ощущает одетый по сезону человек в тени. Характеристика душности погоды. При расчете учитывается влияние влажности воздуха и скорости ветра на теплоощущения человека.
Tes - Эффективная температура на солнце - температура, которую ощущает человек, с поправкой на солнечный нагрев. Характеристика знойности погоды. Зависит от высоты солнца над горизонтом, облачности и скорости ветра. Ночью, в пасмурную погоду, а также при ветре 12 м/с и более поправка равна нулю.
P - Атмосферное давление - приведенное к уровню моря атмосферное давление.
Po - Атмосферное давление - измеренное на уровне метеостанции атмосферное давление.
Tmin - Минимальная температура - минимум температуры воздуха на высоте 2 м над землей.
Tmax - Максимальная температура - максимум температуры воздуха на высоте 2 м над землей.
R - Количество осадков - Количество выпавших осадков за период времени, мм. При наведении курсора мыши на число - период времени, за который выпало указанное количество осадков.
R24 - Количество осадков - Количество выпавших осадков за 24 часа, мм.
S - Снежный покров - Высота снежного покрова, см. При наведении курсора мыши на число - состояние снежного покрова и степень покрытия местности в баллах.